Weather History for La Crosse, WI

Change the Weather History Date:

Friday, September 13, 2013

  Actual Average Record
Temperature  
Mean Temperature 58 °F 64 °F  
Max Temperature 70 °F 75 °F 95 °F (1998)
Min Temperature 45 °F 54 °F 32 °F (1902)
Degree Days  
Heating Degree Days 7 4  
Month to date heating degree days 13 30  
Since 1 July heating degree days 27 50  
Cooling Degree Days 0 3  
Month to date cooling degree days 103 49  
Year to date cooling degree days 888 749  
Growing Degree Days 8 (Base 50)    
Moisture  
Dew Point 43 °F    
Average Humidity 65    
Maximum Humidity 93    
Minimum Humidity 36    
Precipitation  
Precipitation 0.00 in 0.12 in 2.61 in (2005)
Month to date precipitation T 1.61  
Year to date precipitation 27.15 25.57  
Snow  
Snow 0.00 in 0.00 in 0.00 in (2002)
Month to date snowfall 0.0 0.0  
Since 1 July snowfall T 0.0  
Snow Depth 0.00 in    
Sea Level Pressure  
Sea Level Pressure 30.20 in    
Wind  
Wind Speed 5 mph (NNE)    
Max Wind Speed 12 mph    
Max Gust Speed 15 mph    
Visibility 10 miles    
Events      
T = Trace of Precipitation, MM = Missing Value Source: NWS Daily Summary

Daily Weather History Graph

Daily Weather History Graph

Search for Another Location

Airport:

Trip Planner

Search our weather history database for the weather conditions in past years. The results will help you decide how hot, cold, wet, or windy it might be!

Date:

Astronomy

Sep. 13, 2013 Rise Set
Actual Time 6:42 AM CDT 7:18 PM CDT
Civil Twilight 6:13 AM CDT 7:47 PM CDT
Nautical Twilight 5:38 AM CDT 8:21 PM CDT
Astronomical Twilight 5:03 AM CDT 8:57 PM CDT
Moon 3:17 PM CDT (9/13) 12:03 AM CDT (9/13)
Length of Visible Light 13h 34m
Length of Day
12h 36m
First Quarter, 61% of the Moon is Illuminated
Sep 13
First Quarter
Sep 19
Full
Sep 26
Last Quarter
Oct 4
New
Oct 11
First Quarter

Hourly Weather History & Observations

Time (CDT) Temp. Windchill Dew Point Humidity Pressure Visibility Wind Dir Wind Speed Gust Speed Precip Events Conditions
12:53 AM 55.9 °F - 45.0 °F 67% 30.21 in 10.0 mi NNE 5.8 mph - N/A   Clear
1:53 AM 53.1 °F - 45.0 °F 74% 30.21 in 10.0 mi NNE 4.6 mph - N/A   Clear
2:53 AM 52.0 °F - 44.1 °F 74% 30.21 in 10.0 mi North 3.5 mph - N/A   Clear
3:53 AM 48.0 °F - 44.1 °F 86% 30.22 in 10.0 mi North 4.6 mph - N/A   Clear
4:53 AM 46.9 °F - 44.1 °F 90% 30.22 in 10.0 mi NNW 6.9 mph - N/A   Clear
5:53 AM 48.0 °F - 45.0 °F 89% 30.23 in 10.0 mi North 5.8 mph - N/A   Clear
6:53 AM 46.0 °F 43.9 °F 43.0 °F 89% 30.25 in 10.0 mi ESE 4.6 mph - N/A   Clear
7:53 AM 51.1 °F - 45.0 °F 80% 30.26 in 10.0 mi Calm Calm - N/A   Clear
8:53 AM 55.0 °F - 45.0 °F 69% 30.26 in 10.0 mi NNE 3.5 mph - N/A   Clear
9:53 AM 57.0 °F - 44.1 °F 62% 30.27 in 10.0 mi NNE 4.6 mph - N/A   Clear
10:53 AM 62.1 °F - 41.0 °F 46% 30.27 in 10.0 mi North 8.1 mph - N/A   Clear
11:53 AM 62.1 °F - 41.0 °F 46% 30.26 in 10.0 mi Variable 4.6 mph - N/A   Clear
12:53 PM 66.0 °F - 42.1 °F 42% 30.24 in 10.0 mi WNW 4.6 mph - N/A   Clear
1:53 PM 66.0 °F - 42.1 °F 42% 30.21 in 10.0 mi Variable 3.5 mph - N/A   Clear
2:53 PM 69.1 °F - 42.1 °F 38% 30.18 in 10.0 mi North 8.1 mph - N/A   Clear
3:53 PM 69.1 °F - 42.1 °F 38% 30.17 in 10.0 mi WNW 6.9 mph - N/A   Clear
4:53 PM 69.1 °F - 41.0 °F 36% 30.16 in 10.0 mi West 6.9 mph - N/A   Clear
5:53 PM 69.1 °F - 41.0 °F 36% 30.15 in 10.0 mi WNW 3.5 mph - N/A   Clear
6:53 PM 66.0 °F - 41.0 °F 40% 30.14 in 10.0 mi Calm Calm - N/A   Clear
7:53 PM 61.0 °F - 45.0 °F 56% 30.14 in 10.0 mi Calm Calm - N/A   Clear
8:53 PM 55.9 °F - 45.0 °F 67% 30.14 in 10.0 mi ESE 3.5 mph - N/A   Clear
9:53 PM 54.0 °F - 45.0 °F 72% 30.14 in 10.0 mi ESE 4.6 mph - N/A   Clear
10:53 PM 52.0 °F - 44.1 °F 74% 30.14 in 10.0 mi ESE 5.8 mph - N/A   Clear
11:53 PM 50.0 °F - 43.0 °F 77% 30.14 in 10.0 mi ESE 3.5 mph - N/A   Clear